Flag for Germany Weather past 2 weeks in Koblenz, Rhineland-Palatinate, Germany

Now
55 °F

Cool.


Feels Like: 54 °F
Forecast: 52 / 65 °F
Wind: 7 mph from Northwest

Location: Buechel

Current Time: Aug 31, 2014 at 2:48:33 AM

Latest Report: Aug 31, 2014 at 1:20 AM


Visibility: N/A

Pressure: 30.04 "Hg

Humidity: 88%

Dew point: 52 °F

Location of KoblenzLocation

Historic Weather in Koblenz — Graph

°F

Koblenz temperature yesterday

Maximum temperature yesterday: 63 °F (at 12:20 PM)
Minimum temperature yesterday: 52 °F (at 4:20 AM)
Average temperature yesterday: 58 °F

Past Weeks' High & Low Weather Summary

 TemperatureHumidityPressure
High68 °F (Aug 29, 2:20 PM)100% (Aug 17, 6:20 AM)30.12 "Hg (Aug 17, 6:20 AM)
Low41 °F (Aug 24, 7:20 AM)51% (Aug 20, 3:20 PM)29.62 "Hg (Aug 26, 5:20 AM)
Average55 °F81%29.97 "Hg
* Reported Aug 16 1:20 AM — Aug 31 1:20 AM, Koblenz, Weather by CustomWeather, © 2014

Note: Actual official high and low records may vary slightly from our data, if they occured in-between our weather recording intervals... More about our weather records

Advertising

Koblenz weather history for previous 24 hours

 ConditionsComfort  
Time TempWeatherWind HumidityBarometerVisibility
1:20 AM
Aug 31
55 °FCool.7 mph88%30.04 "HgN/A
12:20 AM57 °FCool.12 mph82%30.04 "HgN/A
11:20 PM
Aug 30
59 °FCool.8 mph88%30.04 "HgN/A
10:20 PM59 °FCool.8 mph88%30.04 "HgN/A
9:20 PM59 °FCool.7 mph88%30.04 "HgN/A
8:20 PM61 °FCool.8 mph83%30.04 "HgN/A
7:20 PM61 °FCool.8 mph77%30.04 "HgN/A
6:20 PM61 °FCool.10 mph77%30.04 "HgN/A
5:20 PM59 °FCool.7 mph82%30.07 "HgN/A
4:20 PM61 °FCool.8 mph77%30.07 "HgN/A
3:20 PM63 °FMild.12 mph68%30.07 "HgN/A
2:20 PM63 °FMild.12 mph68%30.07 "HgN/A
1:20 PM63 °FMild.14 mph68%30.07 "HgN/A
12:20 PM63 °FMild.14 mph73%30.09 "HgN/A
11:20 AM61 °FCool.12 mph77%30.09 "HgN/A
10:20 AM59 °FCool.9 mph82%30.09 "HgN/A
9:20 AM55 °FCool.9 mph94%30.09 "HgN/A
8:20 AM54 °FCool.6 mph94%30.09 "Hg4 mi
7:20 AM54 °FCool.8 mph94%30.07 "Hg5 mi
6:20 AM54 °FCool.8 mph94%30.07 "Hg4 mi
5:20 AM54 °FCool.7 mph94%30.07 "Hg4 mi
4:20 AM52 °FCool.6 mph94%30.07 "Hg1 mi
3:20 AM54 °FCool.5 mph88%30.07 "HgN/A
2:20 AM54 °FCool.6 mph94%30.07 "HgN/A
Weather by CustomWeather, © 2014

See weather overviewHow to use our weather pages